User: anonymous   Login
Location: Young's Pond
(41.2695°N, 72.7766°W)
Time: 11:10:30
(UTC-05:00)
Language:

Spot 4 - Orbit

View from above orbital plane
View from above orbital plane
View from above satellite
View from above satellite

Ground track
Ground track

The orbit data is extracted from the following two-line orbital elements,

1 25260U 98017A   16042.86922771  .00000149  00000-0  46865-4 0  9992
2 25260  98.3936 119.8400 0012850 348.3518  11.7354 14.53374988930483
Epoch (UTC): 11 February 2016 20:51:41
Eccentricity: 0.0012850
inclination: 98.3936°
perigee height: 705 km
apogee height: 724 km
right ascension of ascending node: 119.8400°
argument of perigee: 348.3518°
revolutions per day: 14.53374988
mean anomaly at epoch: 11.7354°
orbit number at epoch: 93048

The dashed part of the orbit path shows where the satellite is in the earth's shadow,  

DLR